Tracking 22124 objects as of 25-Jan-2021
HD Live streaming from Space Station
objects crossing your sky now

STARLINK-1945

Track STARLINK-1945 now!
10-day predictions
STARLINK-1945 is classified as:


NORAD ID: 46775
Int'l Code: 2020-074AN
Perigee: 553.8 km
Apogee: 554.9 km
Inclination: 53.0 °
Period: 95.6 minutes
Semi major axis: 6925 km
RCS: Unknown
Launch date: October 24, 2020
Source: United States (US)
Launch site: AIR FORCE EASTERN TEST RANGE (AFETR)
aabbcc
Your satellite tracking list
Your tracking list is empty




NASA's NSSDC Master Catalog

Two Line Element Set (TLE):
1 46775U 20074AN  21024.91667824 -.00012898  00000-0 -84833-3 0  9993
2 46775  53.0473  90.3782 0000812  83.4385 213.0292 15.06412072  1754
Source of the keplerian elements: AFSPC